This is the latest recevied weather packets stored in our database for station/object K7CTM. If no packets are shown the sender has not sent any weather packets the latest 10 day(s).
| Time | Temp. | Humidity | Pressure | Rain* | Wind** | Luminosity | Snow |
|---|---|---|---|---|---|---|---|
| 1777612062 | 5.56° C | 52% | 1030.4 hPa | 0 mm | - | 0 W/m² | - |
| 1777611757 | 7.22° C | 47% | 1030.4 hPa | 0 mm | - | 0 W/m² | - |
| 1777611454 | 6.67° C | 48% | 1030.5 hPa | 0 mm | - | 0 W/m² | - |
| 1777611151 | 7.22° C | 46% | 1030.3 hPa | 0 mm | - | 0 W/m² | - |
| 1777610847 | 7.22° C | 48% | 1030.3 hPa | 0 mm | - | 0 W/m² | - |
| 1777610542 | 7.22° C | 47% | 1030.4 hPa | 0 mm | - | 0 W/m² | - |
| 1777610237 | 7.78° C | 47% | 1030.2 hPa | 0 mm | - | 0 W/m² | - |
| 1777609934 | 7.22° C | 48% | 1030.3 hPa | 0 mm | - | 0 W/m² | - |
| 1777609631 | 7.22° C | 48% | 1030.4 hPa | 0 mm | - | 0 W/m² | - |
| 1777609328 | 7.78° C | 47% | 1030.5 hPa | 0 mm | - | 0 W/m² | - |
| 1777609025 | 7.78° C | 47% | 1030.4 hPa | 0 mm | - | 0 W/m² | - |
| 1777608722 | 7.78° C | 45% | 1030.3 hPa | 0 mm | - | 0 W/m² | - |
| 1777608419 | 8.33° C | 44% | 1030 hPa | 0 mm | - | 0 W/m² | - |
| 1777608117 | 8.89° C | 43% | 1030 hPa | 0 mm | - | 0 W/m² | - |
| 1777607813 | 8.89° C | 41% | 1030.2 hPa | 0 mm | - | 0 W/m² | - |
| 1777607509 | 9.44° C | 41% | 1030.2 hPa | 0 mm | - | 0 W/m² | - |
| 1777607205 | 9.44° C | 40% | 1030.3 hPa | 0 mm | - | 0 W/m² | - |
| 1777606902 | 10° C | 39% | 1030 hPa | 0 mm | - | 0 W/m² | - |
| 1777606598 | 10° C | 39% | 1030 hPa | 0 mm | - | 0 W/m² | - |
| 1777606293 | 9.44° C | 39% | 1029.9 hPa | 0 mm | - | 0 W/m² | - |
| 1777605988 | 8.89° C | 39% | 1029.9 hPa | 0 mm | - | 0 W/m² | - |
| 1777605685 | 9.44° C | 39% | 1030.2 hPa | 0 mm | - | 0 W/m² | - |
| 1777605384 | 9.44° C | 38% | 1030 hPa | 0 mm | - | 0 W/m² | - |
| 1777605081 | 10° C | 37% | 1029.9 hPa | 0 mm | - | 0 W/m² | - |
| 1777604776 | 10.56° C | 36% | 1029.8 hPa | 0 mm | - | 0 W/m² | - |
* Rain latest hour (hover to see other rain measurements)
** Current wind speed in m/s (hover to see current wind gust speed)